Weather History for Antigo, WI

Change the Weather History Date:

Monday, April 29, 2013

  Actual Average Record
Temperature  
Mean Temperature 56 °F -  
Max Temperature 68 °F 61 °F 88 °F (1952)
Min Temperature 45 °F 35 °F 17 °F (1958)
Degree Days  
Heating Degree Days 8    
Growing Degree Days 6 (Base 50)    
Moisture  
Dew Point 49 °F    
Average Humidity 80    
Maximum Humidity 99    
Minimum Humidity 57    
Precipitation  
Precipitation 0.12 in - - ()
Sea Level Pressure  
Sea Level Pressure 29.77 in    
Wind  
Wind Speed 6 mph (SSE)    
Max Wind Speed 16 mph    
Max Gust Speed 20 mph    
Visibility 9 miles    
Events Rain    
Averages and records for this station are not official NWS values.
T = Trace of Precipitation, MM = Missing Value Source: NWS Daily Summary

Daily Weather History Graph

Daily Weather History Graph

Search for Another Location

Airport:

Trip Planner

Search our weather history database for the weather conditions in past years. The results will help you decide how hot, cold, wet, or windy it might be!

Date:

Astronomy

Apr. 29, 2013 Rise Set
Actual Time 5:48 AM CDT 8:00 PM CDT
Civil Twilight 5:15 AM CDT 8:32 PM CDT
Nautical Twilight 4:35 AM CDT 9:12 PM CDT
Astronomical Twilight 3:51 AM CDT 9:57 PM CDT
Moon No Moon Rise 9:04 AM CDT (4/29)
Length of Visible Light 15h 16m
Length of Day
14h 12m
Waning Gibbous, 80% of the Moon is Illuminated
Apr 29
Waning Gibbous
May 2
Last Quarter
May 9
New
May 17
First Quarter
May 24
Full

Hourly Weather History & Observations

Time (CDT) Temp. Windchill Dew Point Humidity Pressure Visibility Wind Dir Wind Speed Gust Speed Precip Events Conditions
12:15 AM 51.6 °F - 41.0 °F 67% 29.78 in 10.0 mi SE 8.1 mph - N/A   Mostly Cloudy
12:35 AM 52.3 °F - 42.3 °F 69% 29.78 in 10.0 mi South 6.9 mph - N/A   Mostly Cloudy
12:55 AM 51.8 °F - 42.3 °F 70% 29.78 in 10.0 mi South 8.1 mph - N/A   Mostly Cloudy
1:15 AM 50.4 °F - 42.4 °F 74% 29.79 in 10.0 mi SSW 6.9 mph - N/A   Mostly Cloudy
1:35 AM 49.8 °F - 42.8 °F 77% 29.79 in 10.0 mi South 5.8 mph - N/A   Mostly Cloudy
1:55 AM 49.3 °F - 43.7 °F 81% 29.81 in 10.0 mi WSW 5.8 mph - N/A Rain Light Rain
2:15 AM 49.1 °F - 45.0 °F 86% 29.80 in 10.0 mi North 3.5 mph - N/A   Light Drizzle
2:35 AM 47.8 °F - 45.0 °F 90% 29.80 in 10.0 mi Calm Calm - N/A Rain Light Rain
2:55 AM 47.3 °F - 45.5 °F 93% 29.80 in 10.0 mi Calm Calm - N/A Rain Light Rain
3:15 AM 46.6 °F - 45.3 °F 95% 29.79 in 10.0 mi East 4.6 mph - N/A   Light Drizzle
3:35 AM 46.2 °F 44.1 °F 44.8 °F 95% 29.79 in 10.0 mi ESE 4.6 mph - N/A   Overcast
3:55 AM 46.0 °F 44.8 °F 45.0 °F 96% 29.80 in 7.0 mi SSW 3.5 mph - N/A   Light Drizzle
4:15 AM 46.6 °F - 45.5 °F 96% 29.80 in 7.0 mi SSE 5.8 mph - 0.01 in Rain Light Rain
4:35 AM 46.6 °F - 45.5 °F 96% 29.80 in 7.0 mi South 4.6 mph - 0.02 in Rain Light Rain
4:55 AM 46.9 °F - 45.9 °F 96% 29.80 in 7.0 mi South 3.5 mph - 0.03 in Rain Rain
5:15 AM 46.9 °F - 46.2 °F 97% 29.81 in 7.0 mi Calm Calm - 0.01 in Rain Light Rain
5:35 AM 46.8 °F - 46.2 °F 98% 29.80 in 7.0 mi SSE 3.5 mph - 0.01 in   Overcast
5:55 AM 46.4 °F - 45.5 °F 97% 29.79 in 7.0 mi Calm Calm - 0.01 in   Overcast
6:15 AM 46.0 °F - 45.5 °F 98% 29.79 in 4.0 mi Calm Calm - N/A   Mostly Cloudy
6:35 AM 45.7 °F - 45.5 °F 99% 29.80 in 3.0 mi Calm Calm - N/A   Scattered Clouds
6:55 AM 45.3 °F - 45.0 °F 99% 29.81 in 1.5 mi Calm Calm - N/A   Mist
7:15 AM 46.6 °F - 46.4 °F 99% 29.81 in 1.5 mi Calm Calm - N/A   Scattered Clouds
7:35 AM 47.7 °F - 47.5 °F 99% 29.81 in 2.5 mi Calm Calm - N/A   Overcast
7:55 AM 48.6 °F - 48.2 °F 99% 29.81 in 2.5 mi South 3.5 mph - N/A   Overcast
8:15 AM 49.1 °F - 48.6 °F 98% 29.81 in 3.0 mi Calm Calm - N/A   Overcast
8:35 AM 50.2 °F - 49.3 °F 97% 29.81 in 5.0 mi Calm Calm - N/A   Overcast
8:55 AM 51.1 °F - 49.5 °F 94% 29.80 in 7.0 mi Calm Calm - N/A   Overcast
9:15 AM 52.0 °F - 49.8 °F 92% 29.80 in 10.0 mi Calm Calm - N/A   Overcast
9:35 AM 52.7 °F - 49.1 °F 88% 29.81 in 10.0 mi Calm Calm - N/A   Overcast
9:55 AM 53.6 °F - 50.4 °F 89% 29.81 in 10.0 mi South 3.5 mph - N/A   Overcast
10:15 AM 54.0 °F - 50.2 °F 87% 29.81 in 10.0 mi South 6.9 mph - N/A   Overcast
10:35 AM 53.8 °F - 50.2 °F 88% 29.81 in 10.0 mi SSE 4.6 mph - N/A   Overcast
10:55 AM 55.4 °F - 50.2 °F 83% 29.81 in 10.0 mi SSE 4.6 mph - N/A   Overcast
11:15 AM 56.8 °F - 50.4 °F 79% 29.81 in 10.0 mi Calm Calm - N/A   Overcast
11:35 AM 58.5 °F - 50.2 °F 74% 29.81 in 10.0 mi Calm Calm - N/A   Overcast
11:55 AM 60.3 °F - 50.5 °F 70% 29.81 in 10.0 mi South 4.6 mph - N/A   Mostly Cloudy
12:15 PM 63.1 °F - 51.3 °F 65% 29.80 in 10.0 mi South 9.2 mph - N/A   Scattered Clouds
12:35 PM 63.7 °F - 51.3 °F 64% 29.80 in 10.0 mi SSW 9.2 mph - N/A   Mostly Cloudy
12:55 PM 64.6 °F - 52.0 °F 64% 29.79 in 10.0 mi South 10.4 mph - N/A   Mostly Cloudy
1:15 PM 66.0 °F - 52.2 °F 61% 29.78 in 10.0 mi South 13.8 mph - N/A   Scattered Clouds
1:35 PM 66.2 °F - 51.6 °F 59% 29.78 in 10.0 mi SW 9.2 mph - N/A   Mostly Cloudy
1:55 PM 68.2 °F - 52.9 °F 58% 29.77 in 10.0 mi South 9.2 mph - N/A   Overcast
2:15 PM 67.5 °F - 52.3 °F 58% 29.76 in 10.0 mi SSW 8.1 mph - N/A   Overcast
2:35 PM 67.5 °F - 51.8 °F 57% 29.75 in 10.0 mi South 8.1 mph - N/A   Overcast
2:55 PM 66.0 °F - 52.0 °F 60% 29.75 in 10.0 mi SSE 5.8 mph - N/A   Overcast
3:15 PM 66.0 °F - 51.6 °F 60% 29.74 in 10.0 mi SSE 6.9 mph - N/A   Overcast
3:35 PM 59.7 °F - 52.9 °F 78% 29.74 in 4.0 mi South 6.9 mph 19.6 mph 0.07 in Rain Heavy Rain
3:55 PM 59.9 °F - 55.8 °F 86% 29.74 in 10.0 mi ENE 3.5 mph - 0.08 in   Overcast
4:15 PM 59.9 °F - 56.3 °F 88% 29.74 in 10.0 mi North 10.4 mph - N/A Rain Light Rain
4:35 PM 63.5 °F - 55.0 °F 74% 29.74 in 10.0 mi South 12.7 mph - N/A   Mostly Cloudy
4:55 PM 64.2 °F - 55.0 °F 72% 29.73 in 10.0 mi SSE 12.7 mph - N/A   Mostly Cloudy
5:15 PM 64.4 °F - 54.0 °F 69% 29.73 in 10.0 mi SSE 11.5 mph - N/A   Mostly Cloudy
5:35 PM 64.4 °F - 52.7 °F 66% 29.72 in 10.0 mi SSE 13.8 mph 18.4 mph N/A   Scattered Clouds
5:55 PM 63.9 °F - 51.8 °F 65% 29.72 in 10.0 mi SSE 16.1 mph - N/A   Mostly Cloudy
6:15 PM 63.0 °F - 52.7 °F 69% 29.73 in 10.0 mi South 16.1 mph - N/A   Scattered Clouds
6:35 PM 63.0 °F - 53.1 °F 70% 29.73 in 10.0 mi South 12.7 mph - N/A   Scattered Clouds
6:55 PM 62.6 °F - 53.1 °F 71% 29.73 in 10.0 mi South 12.7 mph - N/A   Mostly Cloudy
7:15 PM 62.2 °F - 52.9 °F 71% 29.73 in 10.0 mi South 10.4 mph - N/A   Overcast
7:35 PM 60.8 °F - 52.9 °F 75% 29.73 in 10.0 mi SSE 11.5 mph - N/A   Mostly Cloudy
7:55 PM 59.7 °F - 52.2 °F 76% 29.73 in 10.0 mi SSE 11.5 mph - N/A   Scattered Clouds
8:15 PM 59.2 °F - 52.5 °F 79% 29.74 in 10.0 mi SSE 8.1 mph - N/A Rain Light Rain
8:35 PM 59.0 °F - 52.7 °F 80% 29.74 in 10.0 mi SSE 9.2 mph - N/A   Light Drizzle
8:55 PM 58.6 °F - 50.5 °F 74% 29.74 in 10.0 mi SSE 8.1 mph - N/A   Overcast
9:15 PM 57.2 °F - 50.0 °F 77% 29.74 in 10.0 mi SSE 8.1 mph - N/A   Mostly Cloudy
9:35 PM 56.5 °F - 50.0 °F 79% 29.74 in 10.0 mi SSE 8.1 mph - N/A   Overcast
9:55 PM 56.7 °F - 50.0 °F 78% 29.74 in 10.0 mi SSE 9.2 mph - N/A   Overcast
10:35 PM 57.4 °F - 50.0 °F 76% 29.74 in 10.0 mi SSE 10.4 mph - N/A   Overcast
10:55 PM 57.7 °F - 50.0 °F 75% 29.74 in 10.0 mi SE 9.2 mph - N/A   Overcast
11:15 PM 57.4 °F - 50.2 °F 77% 29.73 in 10.0 mi SE 10.4 mph - N/A   Overcast
11:35 PM 56.7 °F - 50.0 °F 78% 29.73 in 10.0 mi SE 10.4 mph - N/A   Overcast
11:55 PM 56.1 °F - 50.0 °F 80% 29.73 in 10.0 mi SE 9.2 mph - N/A   Mostly Cloudy